ARIANE 2 DEB, 33567

Orbit data source: Space-Track

ARIANE 2 DEB, 33567 is space debris in HEO originally from a launch on Fri, 27 Jan 1989 UTC launched from the French Guiana (FRGUI). Debris objects in space refer to the collection of defunct objects orbiting the Earth. Examples of debris include non-operational satellites, rocket bodies, and fragments generated from explosions, collisions, or faulty payload assembly.

Loading next visibility...
Identifier
33567, 1989-006BK
Orbit
HEO
Country
Flag of FRFR
Related business
Manufacturer
EADS/LV
Mission
Spacecraft
Bus & Motor
Unknown
Mass
Unknown
Launch date (UTC)
1989-01-27 (37 years ago)
Launch vehicle
Unknown
Launch site
French Guiana (FRGUI)
Object type
Payload
Rocket body
Debris
Shape & HBR
Unknown shape, 0.2 m
Radar Cross Section
Medium (>0.1 m² and <1 m²)

Expand to show TLE details & history
Last TLE update: 1 week ago

TLE from 1 week ago
0 ARIANE 2 DEB
1 33567U 89006BK  26164.76436315 -.00000173  00000-0 -29262-2 0  9997
2 33567   8.9465 285.3475 7084055  14.9274   8.4411  2.26327210179132
Epoch: 2026-06-13T18:20Z
TLE epoch observation values (Epoch: 2026-06-13T18:20:40.976Z)
Latitude
8.73413°
Longitude
-176.62443°
Altitude
2,679.237 km
Speed
8.47 km/s
True Right ascension
00h 02m 29s
True Declination
8° 41' 37"
Sunlit
Object was in daylight at epoch
Visualization orbit readout
Latitude
Unknown
Longitude
Unknown
Altitude
Unknown
Speed
Unknown
Apparent Right ascension
Unknown
Apparent Declination
Unknown
Sunlit
N/A
Visualization observer readout
Local Sidereal Time
08:39:10
Azimuth
Unknown
Elevation
Unknown
Doppler factor
Unknown
Orbital elements
Apogee altitude
35,493.75 km
Perigee altitude
768.651 km
Semi-major axis
24,509.338 km
Eccentricity
0.70841
Inclination
8.9465°
RAAN
285.3475°
Arg. of periapsis
14.9274°
True anomaly
59.63382°
Mean anomaly
8.4411°
Eccentric anomaly
26.641°
Mean motion
0.56565 °/min
Orbital period
636.44 mins
BSTAR
-0.0029262
Loading maneuver chart data...
Computing Atmospheric mass density...
Loading historical data...
Loading historical data...
Loading historical data...
Loading historical data...
Loading historical data...
Loading historical data...
Loading historical data...

Documentation

Showing up to 5 results
|